�������l�o���
Date,Time,MP-1(��Sv/h),MP-2(��Sv/h),MP-3(��Sv/h),MP-4(��Sv/h),MP-5(��Sv/h),MP-6(��Sv/h),MP-7(��Sv/h),MP-8(��Sv/h),����,����(m/s),���J
2017/06/15,00:00,1.018,1.629,1.080,1.920,1.338,0.538,0.988,0.908,��쐼,0.8,��
2017/06/15,00:10,1.020,1.630,1.078,1.919,1.336,0.538,0.988,0.909,���쐼,0.6,��
2017/06/15,00:20,1.020,1.629,1.079,1.920,1.333,0.540,0.988,0.910,�k��,0.8,��
2017/06/15,00:30,1.020,1.630,1.080,1.921,1.335,0.538,0.984,0.909,-,CALM,��
2017/06/15,00:40,1.020,1.629,1.078,1.921,1.336,0.539,0.987,0.908,��쓌,0.9,��
2017/06/15,00:50,1.018,1.629,1.079,1.922,1.335,0.539,0.986,0.907,��,1.4,��
2017/06/15,01:00,1.019,1.633,1.080,1.921,1.337,0.539,0.985,0.909,��쐼,1.9,��
2017/06/15,01:10,1.020,1.629,1.079,1.920,1.337,0.539,0.983,0.910,�쐼,2.2,��
2017/06/15,01:20,1.019,1.630,1.078,1.920,1.334,0.539,0.985,0.908,�쐼,2.9,��
2017/06/15,01:30,1.020,1.628,1.076,1.920,1.336,0.540,0.986,0.909,�쐼,2.9,��
2017/06/15,01:40,1.021,1.629,1.078,1.922,1.331,0.538,0.986,0.908,��쐼,2.3,��
2017/06/15,01:50,1.020,1.628,1.078,1.918,1.336,0.537,0.987,0.908,��쐼,2.3,��
2017/06/15,02:00,1.018,1.630,1.078,1.917,1.335,0.538,0.984,0.908,��쐼,2.3,��
2017/06/15,02:10,1.019,1.627,1.080,1.922,1.332,0.539,0.986,0.908,��쐼,2.0,��
2017/06/15,02:20,1.019,1.626,1.080,1.918,1.332,0.538,0.985,0.908,��쐼,2.6,��
2017/06/15,02:30,1.017,1.630,1.078,1.919,1.334,0.539,0.985,0.909,��쐼,2.0,��
2017/06/15,02:40,1.022,1.631,1.079,1.921,1.335,0.538,0.984,0.910,�쐼,1.2,��
2017/06/15,02:50,1.020,1.627,1.078,1.917,1.336,0.537,0.986,0.909,�쐼,1.9,��
2017/06/15,03:00,1.019,1.628,1.079,1.920,1.331,0.537,0.986,0.909,���쐼,2.3,��
2017/06/15,03:10,1.019,1.629,1.078,1.920,1.334,0.536,0.986,0.910,�쐼,2.8,��
2017/06/15,03:20,1.020,1.628,1.077,1.918,1.334,0.537,0.984,0.909,���쐼,3.7,��
2017/06/15,03:30,1.016,1.627,1.079,1.919,1.331,0.538,0.985,0.908,�쐼,3.0,��
2017/06/15,03:40,1.018,1.627,1.078,1.918,1.333,0.539,0.985,0.907,�쐼,3.8,��
2017/06/15,03:50,1.018,1.626,1.079,1.919,1.332,0.537,0.986,0.908,�쐼,2.6,��
2017/06/15,04:00,1.019,1.628,1.078,1.918,1.334,0.538,0.985,0.909,��쐼,2.3,��
2017/06/15,04:10,1.017,1.628,1.077,1.919,1.333,0.537,0.987,0.909,��쐼,2.2,��
2017/06/15,04:20,1.019,1.628,1.078,1.921,1.331,0.538,0.986,0.909,�쐼,2.5,��
2017/06/15,04:30,1.018,1.629,1.077,1.917,1.334,0.537,0.984,0.908,��쐼,2.5,��
2017/06/15,04:40,1.018,1.625,1.079,1.918,1.333,0.537,0.985,0.908,��,2.8,��
2017/06/15,04:50,1.019,1.628,1.076,1.920,1.335,0.538,0.983,0.907,��쐼,3.2,��
2017/06/15,05:00,1.019,1.623,1.077,1.917,1.334,0.537,0.986,0.908,��,3.1,��
2017/06/15,05:10,1.020,1.627,1.077,1.920,1.332,0.538,0.986,0.909,��쓌,3.1,��
2017/06/15,05:20,1.021,1.629,1.077,1.918,1.332,0.539,0.985,0.906,��,2.5,��
2017/06/15,05:30,1.020,1.627,1.079,1.919,1.332,0.537,0.986,0.908,��,2.0,��
2017/06/15,05:40,1.017,1.628,1.079,1.920,1.334,0.538,0.987,0.908,��,1.1,��
2017/06/15,05:50,1.021,1.627,1.078,1.920,1.331,0.537,0.986,0.909,���쓌,0.6,��
2017/06/15,06:00,1.019,1.629,1.080,1.921,1.335,0.539,0.987,0.911,-,CALM,��
2017/06/15,06:10,1.023,1.631,1.079,1.920,1.339,0.537,0.988,0.910,�쓌,0.8,��
2017/06/15,06:20,1.021,1.632,1.079,1.922,1.335,0.539,0.987,0.908,�쓌,1.1,��
2017/06/15,06:30,1.021,1.629,1.080,1.922,1.334,0.541,0.986,0.908,�쓌,0.6,��
2017/06/15,06:40,1.021,1.628,1.079,1.923,1.335,0.539,0.984,0.910,��,0.9,��
2017/06/15,06:50,1.021,1.628,1.079,1.925,1.334,0.539,0.987,0.911,��,1.9,��
2017/06/15,07:00,1.019,1.630,1.080,1.922,1.333,0.537,0.984,0.910,��,1.5,��
2017/06/15,07:10,1.020,1.624,1.081,1.923,1.337,0.536,0.986,0.911,��,1.4,��
2017/06/15,07:20,1.021,1.628,1.079,1.924,1.335,0.535,0.983,0.908,�k��,0.6,��
2017/06/15,07:30,1.019,1.629,1.081,1.922,1.332,0.537,0.982,0.908,�쓌,0.8,�L
2017/06/15,07:40,1.021,1.628,1.080,1.921,1.333,0.534,0.983,0.909,�쓌,1.2,��
2017/06/15,07:50,1.020,1.626,1.081,1.923,1.334,0.536,0.984,0.908,�쓌,1.7,��
2017/06/15,08:00,1.020,1.627,1.077,1.922,1.335,0.535,0.985,0.910,�쓌,1.7,�L
2017/06/15,08:10,1.018,1.626,1.081,1.923,1.333,0.536,0.984,0.908,���쓌,1.5,�L
2017/06/15,08:20,1.019,1.628,1.080,1.923,1.332,0.534,0.983,0.908,���쓌,3.3,�L
2017/06/15,08:30,1.018,1.626,1.079,1.923,1.330,0.535,0.984,0.907,���쓌,2.6,�L
2017/06/15,08:40,1.018,1.629,1.079,1.923,1.333,0.534,0.982,0.906,���쓌,2.3,�L
2017/06/15,08:50,1.017,1.629,1.079,1.925,1.331,0.535,0.982,0.907,���쓌,2.6,��
2017/06/15,09:00,1.021,1.631,1.079,1.922,1.331,0.535,0.983,0.908,���쓌,2.3,�L
2017/06/15,09:10,1.019,1.630,1.078,1.921,1.332,0.537,0.983,0.906,���쓌,1.9,�L
2017/06/15,09:20,1.020,1.628,1.078,1.926,1.335,0.536,0.984,0.909,�쓌,2.6,�L
2017/06/15,09:30,1.022,1.630,1.079,1.921,1.335,0.536,0.982,0.909,��쓌,1.5,��
2017/06/15,09:40,1.023,1.632,1.079,1.920,1.335,0.535,0.981,0.910,�쓌,2.3,�L
2017/06/15,09:50,1.021,1.632,1.079,1.920,1.336,0.536,0.984,0.908,��쓌,4.1,��
2017/06/15,10:00,1.022,1.630,1.081,1.924,1.333,0.536,0.984,0.910,��쓌,4.4,��
2017/06/15,10:10,1.021,1.627,1.079,1.923,1.337,0.536,0.984,0.910,��쓌,5.3,��
2017/06/15,10:20,1.019,1.631,1.074,1.924,1.333,0.535,0.983,0.910,��쓌,4.9,��
2017/06/15,10:30,1.019,1.625,1.078,1.924,1.338,0.536,0.986,0.908,�쓌,3.0,��
2017/06/15,10:40,1.021,1.622,1.078,1.929,1.338,0.536,0.985,0.907,�쓌,3.9,��
2017/06/15,10:50,1.022,1.628,1.075,1.926,1.336,0.537,0.986,0.908,�쓌,4.5,��
2017/06/15,11:00,1.023,1.625,1.077,1.924,1.337,0.537,0.987,0.908,�쓌,3.2,��
2017/06/15,11:10,1.021,1.631,1.078,1.924,1.335,0.536,0.986,0.908,�쓌,3.6,��
2017/06/15,11:20,1.015,1.632,1.077,1.923,1.337,0.537,0.987,0.908,�쓌,4.1,��
2017/06/15,11:30,1.018,1.631,1.078,1.923,1.339,0.538,0.987,0.907,�쓌,5.9,��
2017/06/15,11:40,1.021,1.634,1.079,1.926,1.339,0.537,0.988,0.908,�쓌,5.4,��
2017/06/15,11:50,1.023,1.635,1.076,1.923,1.340,0.537,0.987,0.909,�쓌,6.0,��
2017/06/15,12:00,1.023,1.635,1.079,1.925,1.341,0.539,0.985,0.910,�쓌,6.3,��
2017/06/15,12:10,1.022,1.634,1.080,1.925,1.339,0.538,0.987,0.909,���쓌,4.4,��
2017/06/15,12:20,1.024,1.637,1.081,1.925,1.339,0.537,0.989,0.909,�쓌,4.7,��
2017/06/15,12:30,1.020,1.638,1.081,1.924,1.342,0.536,0.987,0.908,�쓌,4.4,��
2017/06/15,12:40,1.023,1.634,1.080,1.926,1.340,0.537,0.986,0.908,�쓌,4.8,��
2017/06/15,12:50,1.023,1.638,1.079,1.927,1.340,0.539,0.988,0.909,�쓌,5.5,��
2017/06/15,13:00,1.025,1.637,1.080,1.925,1.340,0.540,0.987,0.910,�쓌,6.0,��
2017/06/15,13:10,1.024,1.633,1.080,1.927,1.342,0.540,0.987,0.909,�쓌,5.6,��
2017/06/15,13:20,1.023,1.637,1.078,1.924,1.342,0.538,0.987,0.908,�쓌,5.9,��
2017/06/15,13:30,1.022,1.640,1.080,1.923,1.342,0.538,0.986,0.910,�쓌,5.0,��
2017/06/15,13:40,1.024,1.635,1.078,1.925,1.345,0.538,0.988,0.906,�쓌,6.0,��
2017/06/15,13:50,1.023,1.635,1.079,1.926,1.340,0.541,0.987,0.908,�쓌,4.2,��
2017/06/15,14:00,1.023,1.637,1.080,1.927,1.341,0.540,0.987,0.908,�쓌,4.6,��
2017/06/15,14:10,1.027,1.635,1.079,1.925,1.343,0.539,0.987,0.908,�쓌,4.4,��
2017/06/15,14:20,1.022,1.636,1.079,1.926,1.342,0.539,0.988,0.909,�쓌,3.8,��
2017/06/15,14:30,1.024,1.633,1.081,1.925,1.342,0.539,0.986,0.908,���쓌,3.8,��
2017/06/15,14:40,1.023,1.637,1.080,1.925,1.340,0.539,0.986,0.910,���쓌,4.1,��
2017/06/15,14:50,1.026,1.633,1.080,1.927,1.341,0.539,0.986,0.907,���쓌,5.0,��
2017/06/15,15:00,1.022,1.634,1.078,1.928,1.340,0.540,0.987,0.909,���쓌,4.5,��
2017/06/15,15:10,1.023,1.633,1.078,1.925,1.343,0.539,0.986,0.908,���쓌,4.5,��
2017/06/15,15:20,1.023,1.633,1.080,1.926,1.341,0.540,0.987,0.908,�쓌,4.8,��
2017/06/15,15:30,1.021,1.636,1.080,1.928,1.343,0.539,0.987,0.909,�쓌,4.7,��
2017/06/15,15:40,1.023,1.635,1.080,1.929,1.343,0.539,0.988,0.907,�쓌,5.1,��
2017/06/15,15:50,1.022,1.635,1.081,1.929,1.342,0.541,0.986,0.909,�쓌,2.6,�L
2017/06/15,16:00,1.021,1.633,1.082,1.929,1.342,0.541,0.987,0.910,�쓌,3.4,�L
2017/06/15,16:10,1.020,1.636,1.079,1.927,1.343,0.540,0.986,0.908,��쓌,4.4,�L
2017/06/15,16:20,1.020,1.635,1.075,1.928,1.339,0.540,0.986,0.909,��쓌,4.5,�L
2017/06/15,16:30,1.022,1.633,1.075,1.928,1.342,0.538,0.987,0.910,��쓌,3.9,�L
2017/06/15,16:40,1.022,1.632,1.084,1.931,1.341,0.538,0.987,0.910,��쓌,3.5,�L
2017/06/15,16:50,1.024,1.635,1.083,1.928,1.339,0.538,0.988,0.908,�쓌,4.0,�L
2017/06/15,17:00,1.024,1.634,1.083,1.929,1.341,0.540,0.987,0.908,��쓌,5.3,�L
2017/06/15,17:10,1.023,1.637,1.085,1.932,1.343,0.540,0.986,0.908,��쓌,6.5,�L
2017/06/15,17:20,1.022,1.640,1.084,1.932,1.343,0.540,0.985,0.908,��쓌,6.7,�L
2017/06/15,17:30,1.023,1.638,1.084,1.929,1.340,0.540,0.986,0.909,��쓌,5.1,�L
2017/06/15,17:40,1.024,1.636,1.084,1.929,1.341,0.541,0.985,0.911,��쓌,5.4,��
2017/06/15,17:50,1.023,1.635,1.085,1.930,1.340,0.540,0.987,0.912,��,4.6,��
2017/06/15,18:00,1.023,1.636,1.084,1.927,1.340,0.539,0.985,0.910,��,4.7,��
2017/06/15,18:10,1.023,1.634,1.083,1.931,1.340,0.540,0.985,0.912,��,4.7,��
2017/06/15,18:20,1.022,1.635,1.081,1.928,1.340,0.541,0.985,0.911,��,4.2,��
2017/06/15,18:30,1.020,1.635,1.084,1.925,1.340,0.539,0.984,0.911,��,5.2,��
2017/06/15,18:40,1.020,1.637,1.083,1.929,1.342,0.540,0.986,0.911,��,5.4,��
2017/06/15,18:50,1.024,1.637,1.083,1.930,1.342,0.543,0.986,0.911,��,5.0,��
2017/06/15,19:00,1.022,1.636,1.083,1.928,1.343,0.542,0.987,0.911,��,5.3,��
2017/06/15,19:10,1.022,1.636,1.082,1.931,1.342,0.541,0.986,0.911,��,5.4,��
2017/06/15,19:20,1.019,1.636,1.083,1.931,1.341,0.541,0.987,0.912,��,4.9,��
2017/06/15,19:30,1.023,1.636,1.085,1.929,1.341,0.540,0.988,0.910,��,5.3,��
2017/06/15,19:40,1.023,1.634,1.082,1.928,1.342,0.542,0.988,0.912,��쐼,5.8,��
2017/06/15,19:50,1.022,1.635,1.083,1.929,1.342,0.541,0.986,0.911,��,5.8,��
2017/06/15,20:00,1.021,1.634,1.084,1.928,1.341,0.542,0.987,0.910,��쐼,5.2,��
2017/06/15,20:10,1.022,1.634,1.085,1.929,1.341,0.541,0.987,0.910,��쐼,4.8,��
2017/06/15,20:20,1.020,1.630,1.085,1.927,1.341,0.542,0.989,0.910,��쐼,4.6,��
2017/06/15,20:30,1.022,1.635,1.084,1.928,1.343,0.541,0.988,0.911,��쐼,4.0,��
2017/06/15,20:40,1.023,1.633,1.081,1.928,1.342,0.541,0.987,0.911,��쐼,3.4,��
2017/06/15,20:50,1.025,1.636,1.081,1.930,1.344,0.543,0.989,0.910,��쐼,3.0,��
2017/06/15,21:00,1.023,1.636,1.084,1.929,1.343,0.542,0.987,0.911,��,3.5,��
2017/06/15,21:10,1.025,1.634,1.084,1.927,1.341,0.541,0.987,0.912,��,3.6,�L
2017/06/15,21:20,1.024,1.634,1.084,1.931,1.341,0.541,0.989,0.910,��,3.1,�L
2017/06/15,21:30,1.025,1.634,1.084,1.930,1.342,0.542,0.986,0.910,��,2.9,�L
2017/06/15,21:40,1.023,1.632,1.082,1.925,1.343,0.542,0.987,0.911,��,2.5,�L
2017/06/15,21:50,1.023,1.635,1.081,1.927,1.343,0.542,0.986,0.909,��,2.3,�L
2017/06/15,22:00,1.023,1.633,1.082,1.929,1.344,0.543,0.988,0.910,��,3.0,�L
2017/06/15,22:10,1.023,1.635,1.081,1.927,1.342,0.542,0.986,0.911,��쐼,3.4,�L
2017/06/15,22:20,1.022,1.635,1.083,1.926,1.343,0.542,0.988,0.909,��쐼,3.5,�L
2017/06/15,22:30,1.023,1.634,1.080,1.925,1.340,0.541,0.989,0.910,��쐼,4.5,��
2017/06/15,22:40,1.024,1.632,1.083,1.929,1.342,0.542,0.988,0.911,��쐼,4.1,�L
2017/06/15,22:50,1.026,1.635,1.084,1.930,1.342,0.543,0.988,0.911,��쐼,4.7,��
2017/06/15,23:00,1.022,1.635,1.082,1.929,1.342,0.542,0.989,0.909,��쐼,4.1,��
2017/06/15,23:10,1.022,1.632,1.083,1.925,1.343,0.541,0.987,0.911,��,4.3,��
2017/06/15,23:20,1.025,1.634,1.083,1.925,1.343,0.541,0.986,0.912,��,4.9,��
2017/06/15,23:30,1.025,1.633,1.083,1.927,1.341,0.542,0.988,0.910,��,4.7,��
2017/06/15,23:40,1.023,1.634,1.081,1.927,1.341,0.540,0.988,0.911,��,4.4,��
2017/06/15,23:50,1.021,1.632,1.082,1.927,1.340,0.541,0.988,0.910,��,4.0,�L
